Weather History for Rolla, MO

Change the Weather History Date:

Wednesday, July 24, 2013

  Actual Average Record
Temperature  
Mean Temperature 73 °F 78 °F  
Max Temperature 81 °F 89 °F 103 °F (2005)
Min Temperature 64 °F 67 °F 53 °F (2003)
Degree Days  
Heating Degree Days 0 0  
Month to date heating degree days 0 0  
Since 1 June heating degree days 17 14  
Since 1 July heating degree days 0 0  
Cooling Degree Days 8 13  
Month to date cooling degree days 256 293  
Year to date cooling degree days 580 635  
Since 1 June cooling degree days 473 528  
Growing Degree Days 23 (Base 50)    
Moisture  
Dew Point 62 °F    
Average Humidity 70    
Maximum Humidity 90    
Minimum Humidity 49    
Precipitation  
Precipitation 0.00 in 0.15 in 2.23 in (2004)
Month to date precipitation 2.80 3.47  
Year to date precipitation 27.89 24.91  
Sea Level Pressure  
Sea Level Pressure 29.96 in    
Wind  
Wind Speed 6 mph (NE)    
Max Wind Speed 13 mph    
Max Gust Speed 17 mph    
Visibility 10 miles    
Events      
T = Trace of Precipitation, MM = Missing Value Source: NWS Daily Summary

Daily Weather History Graph

Daily Weather History Graph

Search for Another Location

Airport:

Trip Planner

Search our weather history database for the weather conditions in past years. The results will help you decide how hot, cold, wet, or windy it might be!

Date:

Astronomy

Jul. 24, 2013 Rise Set
Actual Time 6:03 AM CDT 8:23 PM CDT
Civil Twilight 5:33 AM CDT 8:53 PM CDT
Nautical Twilight 4:56 AM CDT 9:30 PM CDT
Astronomical Twilight 4:15 AM CDT 10:10 PM CDT
Moon 9:33 PM CDT (7/24) 8:20 AM CDT (7/24)
Length of Visible Light 15h 19m
Length of Day
14h 20m
Waning Gibbous, 94% of the Moon is Illuminated
Jul 24
Waning Gibbous
Jul 29
Last Quarter
Aug 6
New
Aug 14
First Quarter
Aug 20
Full

Hourly Weather History & Observations

Time (CDT) Temp. Heat Index Dew Point Humidity Pressure Visibility Wind Dir Wind Speed Gust Speed Precip Events Conditions
12:53 AM 69.1 °F - 66.0 °F 90% 29.89 in 10.0 mi NNE 3.5 mph - N/A   Partly Cloudy
1:53 AM 69.1 °F - 64.9 °F 87% 29.89 in 10.0 mi NNE 6.9 mph - N/A   Mostly Cloudy
2:53 AM 68.0 °F - 64.0 °F 87% 29.88 in 10.0 mi NE 8.1 mph - N/A   Clear
3:53 AM 66.9 °F - 63.0 °F 87% 29.88 in 10.0 mi NE 8.1 mph - N/A   Clear
4:53 AM 66.0 °F - 63.0 °F 90% 29.90 in 10.0 mi NNE 5.8 mph - N/A   Clear
5:53 AM 66.9 °F - 63.0 °F 87% 29.91 in 10.0 mi NE 6.9 mph - N/A   Overcast
6:53 AM 66.9 °F - 62.1 °F 84% 29.92 in 10.0 mi NNE 10.4 mph - N/A   Mostly Cloudy
7:53 AM 68.0 °F - 62.1 °F 81% 29.93 in 10.0 mi NE 8.1 mph - N/A   Mostly Cloudy
8:53 AM 71.1 °F - 63.0 °F 75% 29.95 in 10.0 mi NE 9.2 mph - N/A   Partly Cloudy
9:53 AM 73.9 °F - 64.0 °F 71% 29.97 in 10.0 mi NE 3.5 mph - N/A   Scattered Clouds
10:44 AM 73.4 °F - 64.4 °F 73% 29.99 in 10.0 mi NNE 8.1 mph - N/A   Mostly Cloudy
10:53 AM 75.0 °F - 64.0 °F 69% 29.97 in 10.0 mi NE 8.1 mph - N/A   Mostly Cloudy
11:39 AM 75.2 °F - 64.4 °F 69% 30.01 in 10.0 mi NNE 8.1 mph - N/A   Scattered Clouds
11:46 AM 75.2 °F - 64.4 °F 69% 30.01 in 10.0 mi North 6.9 mph - N/A   Mostly Cloudy
11:53 AM 77.0 °F - 64.9 °F 66% 29.99 in 10.0 mi NNE 8.1 mph - N/A   Scattered Clouds
12:53 PM 78.1 °F - 63.0 °F 60% 29.99 in 10.0 mi NNE 8.1 mph - N/A   Partly Cloudy
1:53 PM 79.0 °F - 60.1 °F 52% 29.98 in 10.0 mi NE 5.8 mph - N/A   Clear
2:53 PM 79.0 °F - 60.1 °F 52% 29.98 in 10.0 mi NE 5.8 mph - N/A   Partly Cloudy
3:53 PM 80.1 °F 80.7 °F 59.0 °F 48% 29.98 in 10.0 mi NNE 4.6 mph - N/A   Partly Cloudy
4:53 PM 79.0 °F - 59.0 °F 50% 29.98 in 10.0 mi ENE 5.8 mph - N/A   Clear
5:53 PM 79.0 °F - 60.1 °F 52% 29.98 in 10.0 mi NNE 9.2 mph - N/A   Partly Cloudy
6:53 PM 77.0 °F - 59.0 °F 54% 29.97 in 10.0 mi NE 6.9 mph - N/A   Clear
7:53 PM 73.0 °F - 60.1 °F 64% 29.98 in 10.0 mi NNE 4.6 mph - N/A   Clear
8:53 PM 68.0 °F - 59.0 °F 73% 29.99 in 10.0 mi NE 4.6 mph - N/A   Clear
9:53 PM 66.9 °F - 57.9 °F 73% 30.01 in 10.0 mi NE 3.5 mph - N/A   Clear
10:53 PM 66.0 °F - 59.0 °F 78% 30.01 in 10.0 mi East 3.5 mph - N/A   Clear
11:53 PM 64.9 °F - 57.0 °F 75% 30.02 in 10.0 mi ENE 4.6 mph - N/A   Clear